User: anonymous   Login
Location: Unspecified
(0.0000°N, 0.0000°E)
Time: 06:53:56
(UTC+00:00)
Language:

Cosmos 198 - Orbit

View from above orbital plane
View from above orbital plane
View from above satellite
View from above satellite

Ground track
Ground track

The orbit data is extracted from the following two-line orbital elements,

1 03081U 67127A   21067.85757419 -.00000064  00000-0  19917-4 0  9999
2 03081  65.1415 281.3184 0015952  36.0224 324.1914 13.93221424705201
Epoch (UTC): 08 March 2021 20:34:54
Eccentricity: 0.0015952
inclination: 65.1415°
perigee height: 906 km
apogee height: 929 km
right ascension of ascending node: 281.3184°
argument of perigee: 36.0224°
revolutions per day: 13.93221424
mean anomaly at epoch: 324.1914°
orbit number at epoch: 70520

The dashed part of the orbit path shows where the satellite is in the earth's shadow,  

DLR